STARLINK-33813, 63585

Orbit data source: Space-Track

STARLINK-33813, 63585 is a payload satellite owned by SpaceX/Seattle (US) in LEO that was launched on Mon, 14 Apr 2025 UTC via an FALCON 9 launch vehicle from the Air Force Eastern Test Range (AFETR). Payload-class satellites include a variety of spacecraft equipped with specific instruments for various scientific and technological missions. These include communications satellites like Starlink; space stations such as the ISS; scientific satellites like the Hubble; Earth observation satellites from companies like Planet Labs, Umbra, and HawkEye 360; GPS; miniature CubeSats for education and research; and military/defense satellites.

Loading next visibility...
Identifier
63585, 2025-076S
Orbit
LEO
Last TLE update
18 hours ago
Origin
Manufacturer
SpaceX/Seattle
Mission
Operational Commercial Communications
Bus & Motor
STARLINK V2MO, Unknown motor
Mass
575 kg wet, ~530 kg dry
Launch date (UTC)
2025-04-14 (3 months ago)
Launch vehicle
FALCON 9
Launch site
Air Force Eastern Test Range (AFETR)
Object type
Payload
Rocket body
Debris
Shape & HBR
Box + 1 Pan, 29 m
Radar Cross Section
41.120 m², Large (>1 m²)

Expand to show TLE details & history

TLE from 18 hours ago
0 STARLINK-33813
1 63585U 25076S   25188.54464514  .00017740  00000-0  65203-3 0  9992
2 63585  43.0065 265.7158 0003199 281.8415  78.2078 15.27607697 14144
Epoch: 2025-07-07T13:04Z
TLE epoch observation values (Epoch: 2025-07-07T13:04:17.34Z)
Latitude
0.00001°
Longitude
143.8911°
Altitude
482.294 km
Speed
7.626 km/s
True Right ascension
17h 42m 51s
True Declination
0° 00' 00"
Sunlit
Object was in full shadow at epoch
Visualization orbit readout
Latitude
-42.9838°
Longitude
43.11748°
Altitude
494.121 km
Speed
7.619 km/s
Apparent Right ascension
09h 18m 50s
Apparent Declination
-44° 16' 29"
Sunlit
Object is in daylight
Visualization observer readout
Local Sidereal Time
19:34:54
Azimuth
248.678° W
Elevation
-70.322°
Doppler factor
1
Orbital elements
Apogee altitude
487.106 km
Perigee altitude
482.715 km
Semi-major axis
6,863.047 km
Eccentricity
0.00032
Inclination
43.0065°
RAAN
265.7158°
Arg. of periapsis
281.8415°
True anomaly
Unknown
Mean anomaly
78.2078°
Eccentric anomaly
Unknown
Mean motion
3.8174 °/min
Orbital period
94.31 mins
BSTAR
0.00065203
Loading maneuver chart data...
Loading SW <> Apogee altitude chart data...
Loading historical data...
Loading historical data...
Loading historical data...
Loading historical data...
Loading historical data...
Loading historical data...
Loading historical data...

STARLINK-33813 Visibility forecast

Observer location: undefined°, undefined°

Span
Click to sort rows by Start time (UTC) header in descending order
Start Az.
Max El. time (UTC)
Max El. Az.
Max El.
End time (UTC)
End Az.
6 mins2025-07-08 08:05:20.903Z208.625° SW2025-07-08 08:08:20.903Z155.591° SSE25.5°2025-07-08 08:11:20.903Z91.457° ESE
5 mins2025-07-08 09:45:20.903Z260.555° W2025-07-08 09:47:20.903Z347.737° N44.346°2025-07-08 09:50:20.903Z70.097° E
5 mins2025-07-08 11:24:20.903Z293.162° NW2025-07-08 11:26:20.903Z351.316° N37.924°2025-07-08 11:29:20.903Z75.777° E
6 mins2025-07-08 13:03:20.903Z286.875° WNW2025-07-08 13:05:20.903Z270.715° WNW44.019°2025-07-08 13:09:20.903Z111.659° ESE
|